Home > Weather > Friedrichshafen > Past weeks

Flag for Germany Past Weather in Friedrichshafen, Baden-Württemberg, Germany — Yesterday and Last 2 Weeks

Now
64 °F

Partly sunny.


Feels Like: 64 °F
Forecast: 55 / 78 °F
Wind: 2 mph from North

Location: Friedrichshafen Airport

Current Time: Jun 27, 2016 at 9:56:05 AM

Latest Report: Jun 27, 2016 at 9:20 AM


Visibility: N/A

Pressure: 30.18 "Hg

Humidity: 64%

Dew Point: 52 °F

Location of FriedrichshafenLocation

Past Weather in Friedrichshafen — Graph

°F

Friedrichshafen Temperature Yesterday

Maximum temperature yesterday: 64 °F (at 12:50 PM)
Minimum temperature yesterday: 59 °F (at 2:20 AM)
Average temperature yesterday: 61 °F

High & Low Weather Summary for the Past Weeks

 TemperatureHumidityPressure
High91 °F (Jun 23, 6:20 PM)100% (Jun 13, 7:50 AM)30.27 "Hg (Jun 13, 7:50 AM)
Low48 °F (Jun 17, 6:20 AM)38% (Jun 20, 5:50 PM)29.56 "Hg (Jun 16, 6:20 AM)
Average63 °F81%29.98 "Hg
* Reported Jun 12 8:20 AM — Jun 27 8:50 AM, Friedrichshafen, Weather by CustomWeather, © 2016

Note: Actual official high and low records may vary slightly from our data, if they occured in-between our weather recording intervals... More about our weather records

Advertising

Friedrichshafen Weather History for the Previous 24 Hours

Scroll right to see more
 ConditionsComfort  
Time TempWeatherWind HumidityBarometerVisibility
8:50 AM
Mon, Jun 27
63 °FScattered clouds.2 mph73%30.18 "HgN/A
8:20 AM61 °FPartly sunny.1 mph77%30.18 "HgN/A
7:50 AM59 °FSunny.No wind88%30.18 "Hg10 mi
7:20 AM57 °FSunny.1 mph94%30.18 "Hg10 mi
6:50 AM57 °FSunny.1 mph94%30.18 "Hg10 mi
6:20 AM55 °FPassing clouds.2 mph94%30.18 "HgN/A
5:50 AM55 °FPassing clouds.2 mph94%30.18 "HgN/A
5:20 AM55 °FCool.2 mph94%30.18 "HgN/A
4:50 AM55 °FCool.1 mph94%30.15 "HgN/A
4:20 AM55 °FMostly cloudy.2 mph94%30.15 "HgN/A
3:50 AM55 °FMostly cloudy.1 mph94%30.15 "HgN/A
3:20 AM57 °FOvercast.2 mph88%30.15 "HgN/A
2:50 AM57 °FMostly cloudy.3 mph88%30.15 "HgN/A
2:20 AM57 °FSprinkles. Mostly cloudy.3 mph88%30.15 "HgN/A
1:50 AM57 °FPartly cloudy.3 mph94%30.15 "HgN/A
1:20 AM57 °FPartly cloudy.3 mph94%30.12 "HgN/A
12:50 AM57 °FPartly cloudy.2 mph94%30.12 "HgN/A
12:20 AM59 °FPartly cloudy.5 mph88%30.15 "HgN/A
11:50 PM
Sun, Jun 26
59 °FPassing clouds.5 mph88%30.12 "HgN/A
11:20 PM59 °FOvercast.3 mph88%30.12 "HgN/A
10:50 PM61 °FClear.3 mph88%30.12 "Hg10 mi
10:20 PM61 °FOvercast.5 mph88%30.12 "HgN/A
9:50 PM61 °FSunny.5 mph88%30.12 "Hg10 mi
9:20 PM63 °FOvercast.5 mph83%30.12 "HgN/A
8:50 PM63 °FSunny.2 mph83%30.09 "Hg10 mi
8:20 PM63 °FOvercast.3 mph83%30.09 "HgN/A
7:50 PM63 °FPartly sunny.3 mph77%30.09 "HgN/A
7:20 PM64 °FOvercast.2 mph73%30.09 "HgN/A
6:50 PM64 °FOvercast.2 mph73%30.09 "HgN/A
6:20 PM64 °FOvercast.3 mph73%30.09 "HgN/A
5:50 PM63 °FOvercast.5 mph77%30.09 "HgN/A
5:20 PM64 °FOvercast.5 mph78%30.09 "HgN/A
4:50 PM64 °FOvercast.3 mph78%30.09 "HgN/A
4:20 PM64 °FOvercast.5 mph73%30.09 "HgN/A
3:50 PM64 °FOvercast.3 mph73%30.09 "HgN/A
3:20 PM64 °FOvercast.5 mph78%30.09 "HgN/A
2:50 PM64 °FOvercast.5 mph78%30.09 "HgN/A
2:20 PM63 °FOvercast.6 mph83%30.09 "HgN/A
1:50 PM63 °FOvercast.6 mph83%30.12 "HgN/A
1:20 PM63 °FOvercast.5 mph83%30.12 "HgN/A
12:50 PM64 °FOvercast.1 mph78%30.12 "HgN/A
12:20 PM63 °FOvercast.2 mph83%30.12 "HgN/A
11:50 AM63 °FOvercast.2 mph83%30.12 "HgN/A
11:20 AM63 °FOvercast.2 mph83%30.12 "HgN/A
10:50 AM61 °FCool.2 mph88%30.12 "HgN/A
10:20 AM61 °FOvercast.3 mph88%30.12 "HgN/A
9:50 AM61 °FOvercast.3 mph88%30.12 "HgN/A
9:20 AM61 °FOvercast.3 mph83%30.12 "HgN/A
Weather by CustomWeather, © 2016

See weather overviewHow to use our weather pages